Banthumloop - score

Heren 40+, 10km.

Plaats NR NAAM WOONPL CAT TIJD
1 208 Stigter, Aart Doorn 4 00:29:48
2 209 Sasse, Jos Harreveld 4 00:31:16
3 224 Timmermans, Charles Hellevoetsluis 4 00:31:57
4 735 Johnsen, Johnny Amersfoort 4 00:32:46
5 201 Kraaijeveld, Cees Apeldoorn 4 00:32:47
6 255 Kate, ten Marti Enschede 4 00:33:05
7 270 Vries, Tibbe de Oldebroek 4 00:33:16
8 207 Rolink, Peter Erica 4 00:33:21
9 289 Graaf, Wim van der Apeldoorn 4 00:33:24
10 292 Liefers, Wim Apeldoorn 4 00:33:34
11 205 Vaarwerk, Gerrit te Delden 4 00:33:42
12 249 Bruns, Tonnie Ootmarsum 4 00:34:03
13 225 Ramerman, Dick Borne 4 00:34:04
14 223 Klaasse, Leo Hellevoetsluis 4 00:34:11
15 204 Sanderman, Dick Rijssen 4 00:34:22
16 222 Prins, Arie Koekange 4 00:34:40
17 206 Voogt, Elbert Beekbergen 4 00:34:46
18 291 Zaal, Ron Apeldoorn 4 00:34:54
19 290 Bovenhuis, Lubbert Dronten 4 00:35:24
20 242 Spraakman, Martin Meppel 4 00:35:25
21 235 Jurgens, Gerrit Vriezenveen 4 00:35:28
22 278 Hindriks, Luuk Erica 4 00:35:37
23 237 Renkema, Jakob Nijverdal 4 00:35:45
24 220 Hutten, Roelof Bruchterveld 4 00:36:11
25 282 Rameijn, Willem Voorst 4 00:36:17
26 212 Tichelaar, Gerrit Jan Oldebroek 4 00:36:58
27 296 Reekers, Rudie Westerhaar 4 00:37:16
28 243 Oldehinkel, Albert Radewijk 4 00:37:26
29 254 Essen, Rijk van Twello 4 00:37:32
30 737 Leeuw, Ge de Zwolle 4 00:37:43
31 266 Arends, Gerard Staphorst 4 00:37:48
32 283 Bok, Egmond de Zwolle 4 00:37:52
33 245 Weening, Herman Hardenberg 4 00:38:25
34 219 Vosjan, Freek Hardenberg 4 00:38:29
35 248 Vrooijink, Gerard De Lutte 4 00:38:31
36 286 Brouwer, Ronald Apeldoorn 4 00:38:36
37 217 Bosch, Henk Hardenberg 4 00:38:43
38 281 Beldman, Richard Holten 4 00:38:47
39 257 Witvoet, Bert Enschede 4 00:38:55
40 264 Wassink, Arian Almelo 4 00:39:03
41 261 Stevens, Roel Noordscheschut 4 00:39:31
42 244 Sasbrink, Andre Nijverdal 4 00:39:39
43 250 Bouwhuis, Herman Den Ham 4 00:39:41
44 287 Broshuis, Hans Kampen 4 00:39:44
45 232 Tijhuis, Jan Rijssen 4 00:39:52
46 288 Sijtsma, Koos Wierden 4 00:39:59
47 259 Braamhaar, Benno Rijssen 4 00:40:04
48 268 Offenberg, Henk Hengelo 4 00:40:17
49 240 Achterhes, Jan Lutten 4 00:40:18
50 297 Oldehinkel, Henk Dedemsvaart 4 00:40:21
51 739 Otter, Martin Nieuw-Dordrecht 4 00:40:59
52 284 Oudenhuijsen, Ton Apeldoorn 4 00:41:03
53 251 Altena, Henk Nijverdal 4 00:41:43
54 293 Steketee, Robert Nunspeet 4 00:41:50
55 294 Mouwer, Wim Nunspeet 4 00:41:51
56 228 Bouwhuis, Herman Bergentheim 4 00:41:54
57 252 Voorhuis, Wim Almelo 4 00:42:10
58 263 Folkers, Jan De Krim 4 00:42:10
59 221 Gunnink, Hilbert Hardenberg 4 00:42:12
60 279 Dokter, Henk Heerde 4 00:42:15
61 239 Kikkert, Bertus Bergentheim 4 00:42:16
62 229 Meyerink, Gerard Vroomshoop 4 00:42:41
63 233 Nieuwenhuis, Johan Bergentheim 4 00:42:49
64 231 Kreutzider, Bernd Nordhorn (Dld) 4 00:42:50
65 256 Wolthuis, Herman ten Rijssen 4 00:43:14
66 211 Nijstad, Bart Zwolle 4 00:43:25
67 271 Schuurman, Henk Lemele 4 00:43:26
68 258 Baan, Derk Rijssen 4 00:43:37
69 285 Kremer, Kees Terwolde 4 00:43:39
70 742 Timmermans, Dirk Heemse 4 00:43:41
71 218 Bosch, Hans Lutten 4 00:43:46
72 236 Kamp, Harm van der Hardenberg 4 00:43:50
73 226 Ris, Gert-Jan Haren (Gr) 4 00:43:54
74 200 Stevens, Herman Vriezenveen 4 00:44:06
75 738 Olde Scholtenhuis, S. Oldenzaal 4 00:44:11
76 267 Holterman, Herman Hengelo 4 00:44:35
77 230 Hobert, Jo Nijverdal 4 00:44:43
78 280 Bogaaz, Arjeh Hardenberg 4 00:44:44
79 741 Brinke, Jan ten Hardenberg 4 00:44:45
80 214 Essen, Willem van Hoogeveen 4 00:44:50
81 274 Hulzebosch, Willem Hardenberg 4 00:45:07
82 260 Wolterink, Koos Hardenberg 4 00:45:22
83 273 Kampman, Jan Henk Hardenberg 4 00:45:29
84 234 Maathuis, Tinus Vroomshoop 4 00:45:52
85 736 Leemhuis, Henk Hardenberg 4 00:45:57
86 299 Gierveld, Herman Hoogeveen 4 00:46:02
87 247 Martens, Herman Ommen 4 00:46:23
88 253 Westerbeek, Wicher Hardenberg 4 00:46:27
89 246 Pezy, Jan Vriezenveen 4 00:46:35
90 238 Stockentree, Hennie Enschede 4 00:46:41
91 277 Stempher, Harrie Deventer 4 00:46:54
92 227 Schulenburg, Henk Rijssen 4 00:47:10
93 269 Weinreder, Frede Almelo 4 00:47:28
94 241 Hofsink, Wout Bergentheim 4 00:47:42
95 272 Cazemier, Hans Hardenberg 4 00:48:19
96 295 Janssen, Ricks Hardenberg 4 00:49:38
97 265 Likkel, Thijs Coevorden 4 00:49:47
98 743 Veltink, Dinardus Sibculo 4 00:51:46
99 740 Stoel, Hennie Zwolle 4 00:52:14
100 262 Smit, Jan Noordscheschut 4 00:55:13